Tracking 20242 objects as of 24-Jan-2020
HD Live streaming from Space Station
objects crossing your sky now

PSLV DEB

Track PSLV DEB now!
10-day predictions


NORAD ID: 27585
Int'l Code: 2001-049ND
Perigee: 609.5 km
Apogee: 695.4 km
Inclination: 98.1 °
Period: 97.6 minutes
Semi major axis: 7023 km
RCS: 0.0014 m2 (small)
Launch date: October 22, 2001
Source: India (IND)
Launch site: SRIHARIKOTA (SRI)

Note: This is SATELLITE DEBRIS
aabbcc
Your satellite tracking list
Your tracking list is empty




NASA's NSSDC Master Catalog

Two Line Element Set (TLE):
1 27585U 01049ND  20023.05505657  .00000088  00000-0  20901-4 0  9993
2 27585  98.1133 326.6527 0061189 230.7805 128.7963 14.74949343956605
Source of the keplerian elements: AFSPC